| time (UTC) | temp F | wind direction | speed MPH | gust MPH | rain 1hr in | rain 24hr in | rain mn in | humidity % | barometer mb |
| 20260506004606 | 73 | 23 | 2.0 | 4.0 | 0.00 | 0.00 | 0.00 | 27 | 1010.8 |
| 20260506003112 | 73 | 6 | 2.0 | 4.0 | 0.00 | 0.00 | 0.00 | 26 | 1010.8 |
| 20260506001617 | 73 | 348 | 2.0 | 4.0 | 0.00 | 0.00 | 0.00 | 25 | 1010.7 |
| 20260506000106 | 73 | 351 | 3.0 | 6.0 | 0.00 | 0.00 | 0.00 | 26 | 1010.7 |
| 20260505234616 | 73 | 2 | 2.0 | 6.0 | 0.00 | 0.00 | 0.00 | 25 | 1010.7 |
| 20260505233106 | 75 | 358 | 2.0 | 3.0 | 0.00 | 0.00 | 0.00 | 24 | 1010.8 |
| 20260505231608 | 75 | 36 | 3.0 | 7.0 | 0.00 | 0.00 | 0.00 | 23 | 1010.8 |
| 20260505230110 | 75 | 0 | 4.0 | 7.0 | 0.00 | 0.00 | 0.00 | 24 | 1011.0 |
| 20260505224606 | 75 | 11 | 3.0 | 7.0 | 0.00 | 0.00 | 0.00 | 25 | 1011.1 |
| 20260505223108 | 76 | 4 | 5.0 | 8.0 | 0.00 | 0.00 | 0.00 | 24 | 1011.1 |
| 20260505221606 | 76 | 0 | 5.0 | 10.0 | 0.00 | 0.00 | 0.00 | 24 | 1011.2 |
| 20260505220112 | 76 | 0 | 5.0 | 7.0 | 0.00 | 0.00 | 0.00 | 23 | 1011.1 |
| 20260505214606 | 76 | 4 | 4.0 | 6.0 | 0.00 | 0.00 | 0.00 | 24 | 1011.2 |
| 20260505213111 | 75 | 3 | 3.0 | 6.0 | 0.00 | 0.00 | 0.00 | 24 | 1011.3 |
| 20260505211609 | 75 | 5 | 3.0 | 7.0 | 0.00 | 0.00 | 0.00 | 26 | 1011.3 |
| 20260505210110 | 75 | 5 | 3.0 | 6.0 | 0.00 | 0.00 | 0.00 | 25 | 1011.4 |
| 20260505203107 | 75 | 2 | 2.0 | 3.0 | 0.00 | 0.00 | 0.00 | 24 | 1011.4 |
| 20260505201608 | 75 | 6 | 3.0 | 6.0 | 0.00 | 0.00 | 0.00 | 27 | 1011.7 |
| 20260505200107 | 74 | 347 | 3.0 | 7.0 | 0.00 | 0.00 | 0.00 | 27 | 1011.9 |
| 20260505194606 | 74 | 356 | 2.0 | 4.0 | 0.00 | 0.00 | 0.00 | 30 | 1011.9 |
| 20260505193108 | 73 | 352 | 6.0 | 10.0 | 0.00 | 0.00 | 0.00 | 28 | 1011.9 |
| 20260505191612 | 73 | 2 | 5.0 | 8.0 | 0.00 | 0.00 | 0.00 | 30 | 1011.8 |
| 20260505190109 | 72 | 0 | 7.0 | 11.0 | 0.00 | 0.00 | 0.00 | 29 | 1011.9 |
| 20260505184611 | 72 | 9 | 4.0 | 5.0 | 0.00 | 0.00 | 0.00 | 33 | 1011.9 |
| 20260505183108 | 71 | 357 | 7.0 | 11.0 | 0.00 | 0.00 | 0.00 | 32 | 1011.8 |
| 20260505180108 | 70 | 8 | 4.0 | 7.0 | 0.00 | 0.00 | 0.00 | 34 | 1011.7 |
| 20260505174608 | 69 | 3 | 4.0 | 5.0 | 0.00 | 0.00 | 0.00 | 36 | 1011.6 |
| 20260505173112 | 69 | 357 | 5.0 | 8.0 | 0.00 | 0.00 | 0.00 | 34 | 1011.6 |
| 20260505170109 | 69 | 347 | 6.0 | 10.0 | 0.00 | 0.00 | 0.00 | 34 | 1011.3 |
| 20260505164607 | 68 | 9 | 3.0 | 6.0 | 0.00 | 0.00 | 0.00 | 37 | 1011.2 |
| 20260505163107 | 67 | 354 | 5.0 | 7.0 | 0.00 | 0.00 | 0.00 | 37 | 1011.1 |
| 20260505160106 | 66 | 357 | 4.0 | 8.0 | 0.00 | 0.00 | 0.00 | 37 | 1011.1 |
| 20260505153106 | 64 | 359 | 2.0 | 4.0 | 0.00 | 0.00 | 0.00 | 37 | 1011.0 |
| 20260505151607 | 64 | 329 | 0.0 | 2.0 | 0.00 | 0.00 | 0.00 | 35 | 1011.0 |
| 20260505150107 | 64 | 340 | 2.0 | 4.0 | 0.00 | 0.00 | 0.00 | 34 | 1010.9 |
| 20260505140106 | 57 | 178 | 0.0 | 2.0 | 0.00 | 0.00 | 0.00 | 43 | 1010.4 |
| 20260505130109 | 52 | 244 | 1.0 | 4.0 | 0.00 | 0.00 | 0.00 | 43 | 1010.0 |
| 20260505124607 | 50 | 241 | 2.0 | 3.0 | 0.00 | 0.00 | 0.00 | 46 | 1010.0 |
| 20260505123107 | 50 | 242 | 3.0 | 4.0 | 0.00 | 0.00 | 0.00 | 46 | 1009.9 |
| 20260505121606 | 52 | 240 | 0.0 | 0.0 | 0.00 | 0.00 | 0.00 | 45 | 1009.8 |
| 20260505120108 | 54 | 248 | 3.0 | 4.0 | 0.00 | 0.00 | 0.00 | 41 | 1009.6 |
| 20260505113106 | 54 | 246 | 4.0 | 5.0 | 0.00 | 0.00 | 0.00 | 42 | 1009.4 |
| 20260505111607 | 53 | 234 | 2.0 | 3.0 | 0.00 | 0.00 | 0.00 | 44 | 1009.3 |
| 20260505110106 | 52 | 258 | 4.0 | 8.0 | 0.00 | 0.00 | 0.00 | 45 | 1009.3 |
| 20260505101607 | 51 | 250 | 3.0 | 4.0 | 0.00 | 0.00 | 0.00 | 45 | 1008.8 |
| 20260505100110 | 51 | 252 | 1.0 | 2.0 | 0.00 | 0.00 | 0.00 | 47 | 1008.8 |
| 20260505094608 | 51 | 260 | 1.0 | 2.0 | 0.00 | 0.00 | 0.00 | 47 | 1008.7 |
| 20260505091606 | 56 | 248 | 0.0 | 1.0 | 0.00 | 0.00 | 0.00 | 40 | 1008.8 |
| 20260505090111 | 56 | 218 | 0.0 | 2.0 | 0.00 | 0.00 | 0.00 | 41 | 1008.8 |
| 20260505084606 | 56 | 218 | 1.0 | 2.0 | 0.00 | 0.00 | 0.00 | 41 | 1008.8 |
| 20260505083110 | 56 | 273 | 1.0 | 4.0 | 0.00 | 0.00 | 0.00 | 41 | 1009.0 |
| 20260505081607 | 55 | 211 | 1.0 | 2.0 | 0.00 | 0.00 | 0.00 | 42 | 1009.1 |
| 20260505080114 | 54 | 239 | 1.0 | 3.0 | 0.00 | 0.00 | 0.00 | 47 | 1009.1 |
| 20260505073108 | 59 | 0 | 0.0 | 0.0 | 0.00 | 0.00 | 0.00 | 38 | 1008.7 |
| 20260505071607 | 60 | 227 | 3.0 | 4.0 | 0.00 | 0.00 | 0.00 | 39 | 1008.6 |
| 20260505064610 | 60 | 220 | 1.0 | 4.0 | 0.00 | 0.00 | 0.00 | 41 | 1008.4 |
| 20260505063108 | 60 | 220 | 2.0 | 3.0 | 0.00 | 0.00 | 0.00 | 41 | 1008.4 |
| 20260505061606 | 61 | 229 | 2.0 | 3.0 | 0.00 | 0.00 | 0.00 | 39 | 1008.3 |
| 20260505054609 | 63 | 338 | 1.0 | 2.0 | 0.00 | 0.00 | 0.00 | 35 | 1008.2 |
| 20260505053111 | 63 | 200 | 1.0 | 2.0 | 0.00 | 0.00 | 0.00 | 35 | 1008.1 |
| 20260505051606 | 61 | 224 | 1.0 | 3.0 | 0.00 | 0.00 | 0.00 | 36 | 1007.9 |
| 20260505050109 | 60 | 238 | 1.0 | 2.0 | 0.00 | 0.00 | 0.00 | 39 | 1007.9 |
| 20260505041609 | 62 | 273 | 0.0 | 2.0 | 0.00 | 0.00 | 0.00 | 36 | 1007.6 |
| 20260505040109 | 64 | 316 | 0.0 | 1.0 | 0.00 | 0.00 | 0.00 | 33 | 1007.4 |
| 20260505034605 | 65 | 218 | 1.0 | 2.0 | 0.00 | 0.00 | 0.00 | 32 | 1007.2 |
| 20260505033107 | 67 | 210 | 0.0 | 2.0 | 0.00 | 0.00 | 0.00 | 30 | 1006.9 |
| 20260505031607 | 69 | 265 | 1.0 | 3.0 | 0.00 | 0.00 | 0.00 | 27 | 1006.8 |
| 20260505030107 | 69 | 299 | 2.0 | 3.0 | 0.00 | 0.00 | 0.00 | 27 | 1006.6 |
| 20260505024606 | 69 | 211 | 0.0 | 2.0 | 0.00 | 0.00 | 0.00 | 26 | 1006.5 |
| 20260505023106 | 70 | 12 | 1.0 | 3.0 | 0.00 | 0.00 | 0.00 | 26 | 1006.5 |
| 20260505021615 | 71 | 348 | 2.0 | 4.0 | 0.00 | 0.00 | 0.00 | 26 | 1006.4 |
| 20260505014606 | 74 | 348 | 4.0 | 6.0 | 0.00 | 0.00 | 0.00 | 22 | 1006.4 |
| 20260505011609 | 75 | 351 | 4.0 | 7.0 | 0.00 | 0.00 | 0.00 | 20 | 1006.6 |
| 20260505010107 | 75 | 355 | 3.0 | 6.0 | 0.00 | 0.00 | 0.00 | 18 | 1006.6 |